Weather History for Crestview, FL

Change the Weather History Date:

Monday, December 16, 2013

  Actual Average Record
Temperature  
Mean Temperature 44 °F -  
Max Temperature 59 °F - - ()
Min Temperature 29 °F - - ()
Degree Days  
Heating Degree Days 21    
Moisture  
Dew Point 27 °F    
Average Humidity 60    
Maximum Humidity 86    
Minimum Humidity 25    
Precipitation  
Precipitation 0.00 in - - ()
Sea Level Pressure  
Sea Level Pressure 30.29 in    
Wind  
Wind Speed 4 mph (North)    
Max Wind Speed 9 mph    
Max Gust Speed -    
Visibility 10 miles    
Events      
T = Trace of Precipitation, MM = Missing Value Source: NWS Daily Summary

Daily Weather History Graph

Daily Weather History Graph

Search for Another Location

Airport:

Trip Planner

Search our weather history database for the weather conditions in past years. The results will help you decide how hot, cold, wet, or windy it might be!

Date:

Astronomy

Dec. 16, 2013 Rise Set
Actual Time 6:36 AM CST 4:47 PM CST
Civil Twilight 6:10 AM CST 5:13 PM CST
Nautical Twilight 5:40 AM CST 5:43 PM CST
Astronomical Twilight 5:10 AM CST 6:13 PM CST
Moon 4:33 PM CST (12/16) 5:48 AM CST (12/16)
Length of Visible Light 11h 03m
Length of Day
10h 10m
Full, 100% of the Moon is Illuminated
Dec 16
Full
Dec 17
Full
Dec 25
Last Quarter
Jan 1
New
Jan 7
First Quarter

Hourly Weather History & Observations

Time (CST) Temp. Windchill Dew Point Humidity Pressure Visibility Wind Dir Wind Speed Gust Speed Precip Events Conditions
12:58 AM 30.6 °F 25.8 °F 26.1 °F 83% 30.27 in 10.0 mi NNW 4.6 mph - N/A   Clear
1:58 AM 31.6 °F 28.3 °F 26.8 °F 82% 30.28 in 10.0 mi North 3.5 mph - N/A   Clear
2:58 AM 30.9 °F 26.2 °F 26.4 °F 83% 30.28 in 10.0 mi North 4.6 mph - N/A   Clear
3:58 AM 30.4 °F 25.6 °F 26.1 °F 84% 30.28 in 10.0 mi North 4.6 mph - N/A   Clear
4:58 AM 29.8 °F 26.3 °F 25.5 °F 84% 30.30 in 10.0 mi NNW 3.5 mph - N/A   Clear
5:58 AM 29.5 °F 25.9 °F 25.7 °F 86% 30.30 in 10.0 mi North 3.5 mph - N/A   Clear
6:58 AM 29.1 °F 24.1 °F 25.0 °F 85% 30.30 in 10.0 mi North 4.6 mph - N/A   Clear
8:55 AM 39.7 °F 34.3 °F 27.9 °F 63% 30.33 in 10.0 mi North 8.1 mph - N/A   Clear
9:55 AM 46.6 °F - 26.8 °F 46% 30.33 in 10.0 mi North 6.9 mph - N/A   Clear
10:55 AM 51.6 °F - 23.4 °F 33% 30.32 in 10.0 mi NNE 6.9 mph - N/A   Clear
11:55 AM 55.4 °F - 23.7 °F 29% 30.29 in 10.0 mi Variable 4.6 mph - N/A   Clear
11:58 AM 55.4 °F - 24.1 °F 30% 30.29 in 10.0 mi Variable 3.5 mph - N/A   Clear
12:55 PM 58.1 °F - 22.8 °F 26% 30.26 in 10.0 mi North 4.6 mph - N/A   Clear
1:55 PM 59.9 °F - 24.1 °F 25% 30.24 in 10.0 mi Variable 5.8 mph - N/A   Partly Cloudy
1:58 PM 59.9 °F - 24.1 °F 25% 30.25 in 10.0 mi NNE 5.8 mph - N/A   Clear
2:55 PM 59.9 °F - 24.4 °F 26% 30.25 in 10.0 mi North 9.2 mph - N/A   Partly Cloudy
3:55 PM 59.4 °F - 25.5 °F 27% 30.25 in 10.0 mi NNE 5.8 mph - N/A   Clear
4:55 PM 54.0 °F - 30.7 °F 41% 30.27 in 10.0 mi Calm Calm - N/A   Clear
5:55 PM 44.1 °F - 31.6 °F 62% 30.27 in 10.0 mi Calm Calm - N/A   Clear
6:55 PM 41.2 °F - 32.4 °F 71% 30.27 in 10.0 mi Calm Calm - N/A   Clear
7:55 PM 39.0 °F - 32.0 °F 76% 30.29 in 10.0 mi Calm Calm - N/A   Clear
8:03 PM 39.2 °F - 32.0 °F 75% 30.28 in 10.0 mi Calm Calm - N/A   Partly Cloudy
8:55 PM 37.0 °F - 31.3 °F 80% 30.30 in 10.0 mi Calm Calm - N/A   Clear
9:55 PM 35.2 °F - 30.6 °F 83% 30.31 in 10.0 mi Calm Calm - N/A   Clear
10:55 PM 34.9 °F - 30.2 °F 83% 30.32 in 10.0 mi Calm Calm - N/A   Clear
11:55 PM 33.1 °F - 28.6 °F 84% 30.29 in 10.0 mi North 2.3 mph - N/A   Clear